Weather reports worldwide

Advertisment
Shobdon, United Kingdom (3520): temperature & dewpoint: 18.08.2017 00:00:00 - 24.08.2017 00:00:00 (BST)Shobdon, United Kingdom (3520): temperature -20cm & temperature -100cm: 18.08.2017 00:00:00 - 24.08.2017 00:00:00 (BST)Shobdon, United Kingdom (3520): wind speed & gusts: 18.08.2017 00:00:00 - 24.08.2017 00:00:00 (BST)Shobdon, United Kingdom (3520): wind direction: 18.08.2017 00:00:00 - 24.08.2017 00:00:00 (BST)Shobdon, United Kingdom (3520): reduced air pressure: 18.08.2017 00:00:00 - 24.08.2017 00:00:00 (BST)Shobdon, United Kingdom (3520): visibility: 18.08.2017 00:00:00 - 24.08.2017 00:00:00 (BST)Shobdon, United Kingdom (3520): sunshine duration: 18.08.2017 00:00:00 - 24.08.2017 00:00:00 (BST)Shobdon, United Kingdom (3520): precipitation: 18.08.2017 00:00:00 - 24.08.2017 00:00:00 (BST)
Date & Time tt [°C] td [°C] tt -20cm [°C] tt -100cm [°C] ff [km/h] ff [kn] fx [km/h] fx [kn] dd ppp [hPa] vv [km] sd [min] rr [mm]
24.08.2017 00:00:00 - - - - - - - - - - - - -
23.08.2017 23:00:00 14,5 12,3 - - 13 7 - - WSW 1015,3 20 0 0,0
23.08.2017 22:00:00 12,9 11,6 - - 11 6 - - WSW 1015,3 19 0 0,0
23.08.2017 21:00:00 14,3 12,1 - - 9 5 - - W 1014,8 18 0 0,0
23.08.2017 20:00:00 16,2 12,4 - - 13 7 - - WSW 1014,3 22 6 0,0
23.08.2017 19:00:00 17,8 13,1 - - 18 10 - - WSW 1014,0 21 0 0,0
23.08.2017 18:00:00 18,3 12,6 - - 15 8 - - W 1013,9 22 0 0,0
23.08.2017 17:00:00 19,0 12,4 - - 18 10 - - W 1013,7 22 6 0,0
23.08.2017 16:00:00 19,7 13,6 - - 21 11 - - W 1013,5 22 6 0,0
23.08.2017 15:00:00 20,1 12,0 - - 15 8 - - W 1013,3 23 30 0,0
23.08.2017 14:00:00 20,1 12,7 - - 13 7 - - W 1013,2 24 54 0,0
23.08.2017 13:00:00 20,0 13,4 - - 18 10 - - W 1013,0 24 54 0,0
23.08.2017 12:00:00 18,7 12,3 - - 18 10 - - W 1013,1 23 54 0,0
23.08.2017 11:00:00 18,2 13,4 - - 13 7 - - W 1013,1 22 36 0,0
23.08.2017 10:00:00 17,4 13,4 17,4 16,0 9 5 - - WNW 1012,6 21 12 0,0
23.08.2017 09:00:00 16,9 14,5 - - 13 7 - - W 1012,3 15 0 0,0
23.08.2017 08:00:00 17,0 15,4 - - 11 6 - - W 1012,0 12 0 0,0
23.08.2017 07:00:00 16,9 16,2 - - 4 2 - - S 1011,6 5 0 0,0
23.08.2017 06:00:00 17,0 16,3 - - 4 2 - - E 1011,6 5 0 0,0
23.08.2017 05:00:00 17,2 16,3 - - 4 2 - - E 1011,7 6 0 0,0
23.08.2017 04:00:00 17,6 16,3 - - 8 4 - - ESE 1011,9 8 0 0,0
23.08.2017 03:00:00 18,0 16,4 - - 5 3 - - SE 1012,5 10 0 0,0
23.08.2017 02:00:00 18,1 16,9 - - 4 2 - - E 1012,9 10 0 0,0
23.08.2017 01:00:00 18,1 17,1 - - 2 1 - - E 1013,3 11 - 0,0
23.08.2017 00:00:00 18,4 17,1 - - 5 3 - - ESE 1013,7 12 0 0,0
22.08.2017 23:00:00 18,4 16,9 - - 8 4 - - ESE 1013,7 15 0 0,0
22.08.2017 22:00:00 18,7 16,8 - - 11 6 - - SE 1014,1 17 0 0,0
22.08.2017 21:00:00 18,7 16,7 - - 8 4 - - ESE 1014,2 17 0 0,0
22.08.2017 20:00:00 20,4 17,2 - - 9 5 - - ESE 1014,3 19 0 0,0
22.08.2017 19:00:00 21,1 17,2 - - 11 6 - - SE 1014,7 21 0 0,0
22.08.2017 18:00:00 21,2 16,9 - - 8 4 - - SSE 1015,2 21 0 0,0
22.08.2017 17:00:00 21,6 16,7 - - 11 6 - - SSE 1015,7 24 0 0,0
22.08.2017 16:00:00 22,1 16,6 - - 15 8 - - SSE 1016,1 25 18 0,0
22.08.2017 15:00:00 21,1 17,3 - - 11 6 - - SE 1016,9 18 0 0,0
22.08.2017 14:00:00 21,3 16,2 - - 13 7 - - SSE 1017,7 24 0 0,0
22.08.2017 13:00:00 21,7 16,0 - - 15 8 - - SSE 1017,8 26 18 0,0
22.08.2017 12:00:00 21,1 17,0 - - 11 6 - - S 1018,4 20 6 0,0
22.08.2017 11:00:00 20,5 17,1 - - 11 6 - - SSE 1018,9 16 18 0,0
22.08.2017 10:00:00 19,1 17,5 16,7 15,9 8 4 - - SE 1019,0 13 0 0,0
22.08.2017 09:00:00 17,5 17,3 - - 5 3 - - ESE 1019,3 13 0 0,0
22.08.2017 08:00:00 16,1 16,1 - - 2 1 - - ENE 1019,5 6 0 0,0
22.08.2017 07:00:00 14,9 14,9 - - 2 1 - - SE 1019,6 0,7 0 0,0
22.08.2017 06:00:00 14,2 14,0 - - 0 0 - - N 1019,3 0,2 0 0,0
22.08.2017 05:00:00 15,2 15,0 - - 0 0 - - N 1019,3 5 0 0,0
22.08.2017 04:00:00 15,7 15,6 - - 4 2 - - E 1019,6 8 0 0,0
22.08.2017 03:00:00 15,8 15,6 - - 2 1 - - NNE 1019,8 11 0 0,0
22.08.2017 02:00:00 15,8 15,6 - - 4 2 - - NNW 1019,9 9 0 0,0
22.08.2017 01:00:00 16,0 15,8 - - 2 1 - - NNW 1020,0 6 - 0,0
22.08.2017 00:00:00 16,7 16,4 - - 5 3 - - E 1020,2 9 0 0,0
21.08.2017 23:00:00 16,8 16,3 - - 0 0 - - N 1020,5 12 0 0,0
21.08.2017 22:00:00 17,5 16,6 - - 4 2 - - W 1020,6 15 0 0,0
21.08.2017 21:00:00 17,7 16,6 - - 5 3 - - WNW 1020,4 17 0 0,0
21.08.2017 20:00:00 18,7 16,6 - - 5 3 - - WSW 1020,1 18 0 0,0
21.08.2017 19:00:00 18,8 16,5 - - 5 3 - - WSW 1020,0 17 6 0,0
21.08.2017 18:00:00 18,7 17,3 - - 4 2 - - NW 1020,2 11 0 0,0
21.08.2017 17:00:00 18,7 17,2 - - 2 1 - - E 1020,1 13 0 0,0
21.08.2017 16:00:00 18,0 16,5 - - 2 1 - - NNE 1020,2 13 0 0,0
21.08.2017 15:00:00 17,8 16,6 - - 5 3 - - E 1020,5 14 0 0,0
21.08.2017 14:00:00 16,9 15,5 - - 5 3 - - SE 1020,6 16 0 0,0
21.08.2017 13:00:00 16,6 15,4 - - 4 2 - - SSE 1020,9 18 0 0,2
21.08.2017 12:00:00 16,0 15,3 - - 8 4 - - ESE 1021,2 17 0 0,2
21.08.2017 11:00:00 15,0 14,7 - - 5 3 - - ESE 1021,7 2,8 0 0,2
21.08.2017 10:00:00 14,8 14,5 16,2 16,0 4 2 - - ESE 1021,3 2,9 0 0,0
21.08.2017 09:00:00 14,3 14,2 - - 4 2 - - E 1021,3 1,8 0 0,0
21.08.2017 08:00:00 14,0 13,9 - - 5 3 - - ESE 1020,9 4,2 0 0,0
21.08.2017 07:00:00 13,6 13,6 - - 4 2 - - E 1020,7 1,6 0 0,2
21.08.2017 06:00:00 13,5 13,5 - - 5 3 - - E 1020,5 1,2 0 0,0
21.08.2017 05:00:00 13,5 13,4 - - 5 3 - - E 1020,4 2,2 0 0,0
21.08.2017 04:00:00 13,5 13,4 - - 5 3 - - E 1020,6 2,4 0 0,0
21.08.2017 03:00:00 13,5 13,3 - - 5 3 - - E 1020,5 4,9 0 0,0
21.08.2017 02:00:00 13,6 13,3 - - 4 2 - - ENE 1020,8 12 0 0,0
21.08.2017 01:00:00 13,6 13,3 - - 2 1 - - ESE 1020,9 16 - 0,0
21.08.2017 00:00:00 13,6 13,3 - - 5 3 - - SSE 1020,9 19 0 0,0
20.08.2017 23:00:00 13,5 13,3 - - 9 5 - - ESE 1021,1 9 0 0,8
20.08.2017 22:00:00 13,5 13,4 - - 9 5 - - E 1021,6 2,9 0 3,2
20.08.2017 21:00:00 13,6 13,4 - - 13 7 - - E 1021,4 4,1 0 4,4
20.08.2017 20:00:00 13,8 13,5 - - 9 5 - - E 1021,5 2,7 0 2,2
20.08.2017 19:00:00 13,9 13,5 - - 9 5 - - E 1021,5 2,2 0 3,8
20.08.2017 18:00:00 14,5 13,2 - - 5 3 - - SE 1021,9 3,4 0 1,6
20.08.2017 17:00:00 15,4 12,0 - - 8 4 - - S 1022,1 16 0 0,0
20.08.2017 16:00:00 16,1 12,0 - - 8 4 - - S 1022,6 17 0 0,0
20.08.2017 15:00:00 16,3 11,9 - - 13 7 - - WSW 1022,9 15 0 0,0
20.08.2017 14:00:00 17,0 11,3 - - 11 6 - - WSW 1022,8 22 0 0,0
20.08.2017 13:00:00 17,5 9,9 - - 13 7 - - SW 1023,0 23 18 0,0
20.08.2017 12:00:00 16,7 10,2 - - 16 9 - - SW 1023,2 20 12 0,0
20.08.2017 11:00:00 16,1 10,5 - - 8 4 - - WSW 1023,4 20 30 0,0
20.08.2017 10:00:00 14,6 11,1 16,2 16,0 8 4 - - WSW 1023,6 21 54 0,0
20.08.2017 09:00:00 12,0 11,2 - - 8 4 - - WNW 1023,4 18 12 0,0
20.08.2017 08:00:00 10,3 10,3 - - 5 3 - - W 1023,3 15 24 0,0
20.08.2017 07:00:00 7,7 7,6 - - 5 3 - - W 1022,6 9 0 0,0
20.08.2017 06:00:00 7,2 6,8 - - 4 2 - - W 1022,3 8 0 0,0
20.08.2017 05:00:00 8,6 8,1 - - 5 3 - - W 1022,3 11 0 0,0
20.08.2017 04:00:00 9,6 9,0 - - 9 5 - - W 1022,2 14 0 0,0
20.08.2017 03:00:00 10,8 9,8 - - 4 2 - - W 1021,9 18 0 0,0
20.08.2017 02:00:00 11,7 9,9 - - 11 6 - - SW 1021,6 21 0 0,0
20.08.2017 01:00:00 12,7 10,3 - - 11 6 - - W 1021,4 19 - 0,0
20.08.2017 00:00:00 12,4 9,9 - - 13 7 - - W 1021,3 19 0 0,0
19.08.2017 23:00:00 12,6 9,8 - - 11 6 - - W 1021,1 20 0 0,0
19.08.2017 22:00:00 13,5 10,2 - - 13 7 - - W 1020,7 20 0 0,0
19.08.2017 21:00:00 14,1 9,8 - - 15 8 - - W 1020,2 21 0 0,0
19.08.2017 20:00:00 14,2 10,0 - - 11 6 - - W 1019,9 21 0 0,0
19.08.2017 19:00:00 15,1 9,5 - - 18 10 - - W 1019,2 23 6 0,0
19.08.2017 18:00:00 15,5 9,5 - - 24 13 - - W 1018,9 25 0 0,0
19.08.2017 17:00:00 15,8 9,8 - - 18 10 - - W 1018,8 24 0 0,0
19.08.2017 16:00:00 16,5 9,6 - - 22 12 - - W 1018,3 26 12 0,0
19.08.2017 15:00:00 16,3 9,5 - - 24 13 - - W 1017,9 23 42 0,0
19.08.2017 14:00:00 15,4 10,3 - - 18 10 46 25 W 1017,9 24 24 0,0
19.08.2017 13:00:00 15,4 9,7 - - 22 12 - - W 1017,4 24 18 0,0
19.08.2017 12:00:00 15,7 10,8 - - 26 14 - - W 1017,1 24 42 0,0
19.08.2017 11:00:00 15,7 10,6 - - 21 11 - - W 1016,8 25 48 0,0
19.08.2017 10:00:00 15,4 10,7 16,5 16,0 22 12 - - W 1016,4 25 54 0,0
19.08.2017 09:00:00 13,9 10,9 - - 21 11 - - W 1016,0 21 30 0,0
19.08.2017 08:00:00 13,2 10,8 - - 18 10 - - W 1015,5 21 42 0,0
19.08.2017 07:00:00 11,1 10,0 - - 11 6 - - W 1015,1 21 18 0,0
19.08.2017 06:00:00 9,1 8,1 - - 4 2 - - W 1014,9 13 0 0,0
19.08.2017 05:00:00 11,4 9,6 - - 5 3 - - W 1014,6 20 0 0,0
19.08.2017 04:00:00 12,0 9,9 - - 13 7 - - W 1014,0 23 0 0,0
19.08.2017 03:00:00 11,9 10,4 - - 11 6 - - W 1013,4 26 0 0,0
19.08.2017 02:00:00 11,7 10,9 - - 11 6 - - W 1012,6 30 0 0,6
19.08.2017 01:00:00 9,7 9,5 - - 5 3 - - W 1012,3 23 - 0,0
19.08.2017 00:00:00 10,5 9,1 - - 4 2 - - W 1011,7 27 0 0,0
18.08.2017 23:00:00 12,4 10,3 - - 11 6 - - NW 1010,9 28 0 0,0
18.08.2017 22:00:00 11,1 10,6 - - 5 3 - - NW 1009,8 28 0 3,6
18.08.2017 21:00:00 11,6 10,4 - - 13 7 - - N 1008,9 2,1 0 2,0
18.08.2017 20:00:00 11,5 10,5 - - 5 3 - - SSE 1008,6 5 0 2,0
18.08.2017 19:00:00 11,9 9,1 - - 18 10 59 32 W 1010,1 8 0 0,8
18.08.2017 18:00:00 15,2 9,6 - - 24 13 50 27 WSW 1009,5 24 0 0,0
18.08.2017 17:00:00 16,4 9,5 - - 29 16 46 25 W 1009,3 27 30 0,0
18.08.2017 16:00:00 16,7 10,4 - - 31 17 - - WSW 1009,5 29 48 0,0
18.08.2017 15:00:00 16,0 10,4 - - 24 13 57 31 WSW 1009,6 30 24 0,0
18.08.2017 14:00:00 17,2 10,9 - - 24 13 - - WSW 1009,2 28 42 0,0
18.08.2017 13:00:00 15,4 9,6 - - 18 10 - - SW 1009,5 26 36 0,0
18.08.2017 12:00:00 12,6 9,9 - - 16 9 - - W 1010,0 24 18 0,2
18.08.2017 11:00:00 16,7 10,0 - - 26 14 - - W 1009,3 27 60 0,0
18.08.2017 10:00:00 15,7 9,9 17,0 16,0 26 14 - - W 1009,6 26 60 0,0
18.08.2017 09:00:00 15,1 11,5 - - 24 13 - - WSW 1009,3 25 60 0,0
18.08.2017 08:00:00 13,4 11,0 - - 16 9 - - WSW 1009,2 27 60 0,0
18.08.2017 07:00:00 11,4 9,9 - - 16 9 - - WSW 1009,1 27 18 0,0
18.08.2017 06:00:00 11,8 9,5 - - 11 6 - - W 1008,4 30 0 0,0
18.08.2017 05:00:00 13,9 12,1 - - 22 12 - - W 1007,6 20 0 0,0
18.08.2017 04:00:00 13,6 12,1 - - 22 12 - - WSW 1007,7 20 0 0,0
18.08.2017 03:00:00 13,3 12,3 - - 13 7 - - WSW 1007,9 20 0 0,0
18.08.2017 02:00:00 13,2 12,3 - - 9 5 - - WSW 1008,3 16 0 0,2
18.08.2017 01:00:00 11,6 11,3 - - 2 1 - - WSW 1008,8 14 - 0,0
18.08.2017 00:00:00 10,5 9,9 - - 2 1 - - W 1009,4 16 0 0,0

tt = temperature
td = dewpoint
tt -20cm = temperature -20cm
tt -100cm = temperature -100cm
ff = wind speed
fx = gusts
dd = wind direction
ppp = reduced air pressure
vv = visibility
sd = sunshine duration
rr = precipitation

Next stations